Overview Statistics Trail Chart Weather Telemetry Raw packets
 

This is the latest recevied weather packets stored in our database for station/object PA1CD-13. If no packets are shown the sender has not sent any weather packets the latest 10 day(s).

<< 13 14 15 16 17 18 19 >>
Time Temp. Humidity Pressure Rain* Wind** Luminosity Snow
1788586082 17.78° C 76% 1013.6 hPa 0 mm - 19 W/m² -
1788585963 17.78° C 76% 1013.6 hPa 0 mm - 12 W/m² -
1788585826 17.78° C 76% 1013.5 hPa 0 mm - 11 W/m² -
1788585703 17.78° C 75% 1013.5 hPa 0 mm - 9 W/m² -
1788585581 17.78° C 75% 1013.4 hPa 0 mm - 11 W/m² -
1788585454 17.78° C 75% 1013.4 hPa 0 mm - 12 W/m² -
1788585332 17.78° C 75% 1013.4 hPa 0 mm - 12 W/m² -
1788585211 17.22° C 75% 1013.3 hPa 0 mm - 11 W/m² -
1788585092 17.22° C 75% 1013.3 hPa 0 mm - 11 W/m² -
1788584975 17.22° C 75% 1013.3 hPa 0 mm - 9 W/m² -
1788584852 17.22° C 75% 1013.3 hPa 0 mm - 9 W/m² -
1788584732 17.22° C 75% 1013.2 hPa 0 mm - 7 W/m² -
1788584607 17.22° C 75% 1013.2 hPa 0 mm - 5 W/m² -
1788584467 17.22° C 75% 1013.3 hPa 0 mm - 0 W/m² -
1788584345 17.22° C 75% 1013.1 hPa 0 mm - 0 W/m² -
1788584224 17.22° C 75% 1013.2 hPa 0 mm - 0 W/m² -
1788584104 17.22° C 75% 1013.2 hPa 0 mm - 0 W/m² -
1788583986 17.22° C 76% 1013.2 hPa 0 mm - 0 W/m² -
1788583866 17.22° C 76% 1013.2 hPa 0 mm - 0 W/m² -
1788583747 17.22° C 76% 1013.1 hPa 0 mm - 0 W/m² -
1788583627 17.22° C 76% 1013.2 hPa 0 mm - 0 W/m² -
1788583506 17.22° C 75% 1013.2 hPa 0 mm - 0 W/m² -
1788583382 17.22° C 75% 1013.1 hPa 0 mm - 0 W/m² -
1788583263 17.22° C 75% 1013.1 hPa 0 mm - 0 W/m² -
1788583143 17.22° C 75% 1013.1 hPa 0 mm - 0 W/m² -

* Rain latest hour (hover to see other rain measurements)
** Current wind speed in m/s (hover to see current wind gust speed)